TimeCDT,TemperatureF,Dew PointF,Humidity,Sea Level PressureIn,VisibilityMPH,Wind Direction,Wind SpeedMPH,Gust SpeedMPH,PrecipitationIn,Events,Conditions,WindDirDegrees,DateUTC
12:57 AM,75.0,69.1,82,30.06,10.0,East,5.8,-,N/A,,Clear,100,2013-08-24 05:57:00
1:57 AM,73.9,69.1,85,30.06,10.0,ESE,5.8,-,N/A,,Clear,120,2013-08-24 06:57:00
2:57 AM,73.0,69.1,87,30.08,10.0,ESE,5.8,-,N/A,,Clear,110,2013-08-24 07:57:00
3:57 AM,73.0,69.1,87,30.08,10.0,ESE,5.8,-,N/A,,Clear,120,2013-08-24 08:57:00
4:57 AM,73.0,69.1,87,30.09,10.0,East,6.9,-,N/A,,Clear,100,2013-08-24 09:57:00
5:57 AM,72.0,69.1,91,30.11,8.0,ESE,4.6,-,N/A,,Clear,110,2013-08-24 10:57:00
6:57 AM,71.1,68.0,90,30.12,7.0,ESE,4.6,-,N/A,,Clear,110,2013-08-24 11:57:00
7:57 AM,73.9,69.1,85,30.14,10.0,ESE,6.9,-,N/A,,Clear,110,2013-08-24 12:57:00
8:57 AM,77.0,70.0,79,30.15,10.0,ESE,9.2,-,N/A,,Clear,110,2013-08-24 13:57:00
9:57 AM,80.1,70.0,71,30.16,10.0,East,9.2,-,N/A,,Clear,100,2013-08-24 14:57:00
10:57 AM,84.0,69.1,61,30.16,10.0,SE,8.1,-,N/A,,Clear,140,2013-08-24 15:57:00
11:57 AM,86.0,70.0,59,30.15,6.0,East,6.9,-,N/A,,Haze,100,2013-08-24 16:57:00
12:04 PM,84.2,69.8,62,30.20,6.0,East,11.5,-,N/A,,Haze,80,2013-08-24 17:04:00
12:11 PM,84.2,69.8,62,30.20,10.0,ENE,9.2,-,N/A,,Scattered Clouds,70,2013-08-24 17:11:00
12:57 PM,86.0,68.0,55,30.14,10.0,East,6.9,-,N/A,,Clear,80,2013-08-24 17:57:00
1:57 PM,87.1,66.9,51,30.13,10.0,East,6.9,-,N/A,,Partly Cloudy,90,2013-08-24 18:57:00
2:57 PM,88.0,66.9,49,30.12,10.0,East,8.1,-,N/A,,Clear,90,2013-08-24 19:57:00
3:57 PM,88.0,64.9,46,30.11,10.0,ESE,9.2,-,N/A,,Clear,110,2013-08-24 20:57:00
4:57 PM,88.0,64.0,45,30.10,10.0,East,5.8,-,N/A,,Clear,90,2013-08-24 21:57:00
5:57 PM,87.1,64.9,48,30.09,10.0,East,8.1,-,N/A,,Clear,90,2013-08-24 22:57:00
6:57 PM,84.9,68.0,57,30.09,10.0,East,5.8,-,N/A,,Clear,80,2013-08-24 23:57:00
7:57 PM,82.0,68.0,62,30.10,10.0,East,5.8,-,N/A,,Clear,80,2013-08-25 00:57:00
8:57 PM,79.0,68.0,69,30.12,10.0,East,6.9,-,N/A,,Clear,90,2013-08-25 01:57:00
9:57 PM,78.1,69.1,74,30.14,10.0,East,6.9,-,N/A,,Clear,100,2013-08-25 02:57:00
10:57 PM,77.0,69.1,76,30.14,10.0,East,8.1,-,N/A,,Clear,100,2013-08-25 03:57:00
11:57 PM,75.9,69.1,79,30.15,10.0,ESE,5.8,-,N/A,,Clear,120,2013-08-25 04:57:00